{"data":{"norad_id":59300,"intl_designator":"2024-056E","name":"STARLINK-31489","alt_names":[],"object_type":"PAYLOAD","status":"ACTIVE","operator":null,"country":"US","launch_date":"2024-03-24","launch_site_code":"AFETR","launch_vehicle":null,"mission":null,"orbit_class":"UNKNOWN","rcs_meters":null,"size_class":null,"mass_kg":null,"dimensions":null,"purposes":["comms"],"wikipedia_slug":null,"has_3d_model":false,"image_url":null,"decayed_at":null,"tle_current":{"epoch":"2026-05-25T04:04:58.488096Z","epoch_age_seconds":53715,"freshness":"FRESH","line1":"1 59300U 24056E   26145.17012139  .00006039  00000+0  22871-3 0  9996","line2":"2 59300  43.0010 158.5637 0001545 291.9199  68.1488 15.27594693122851","mean_motion":15.27594693,"eccentricity":0.0001545,"inclination_deg":43.001,"raan_deg":158.5637,"arg_perigee_deg":291.9199,"mean_anomaly_deg":68.1488,"bstar":0.00022871,"rev_number":12285,"period_min":94.265842019392,"perigee_km":481.94505381003,"apogee_km":484.06514671901,"semimajor_km":6861.1421002645,"source":"CELESTRAK","updated_at":"2026-05-25T13:38:18.898176Z"}}}